This demonstration page uses our WeatherBlox Daily Observations layout. Learn more.

Left ArrowRight Arrow

38.83388, -104.82136

Hourly Observations for January 28, 2021

Temp ( °F °C ) Dew Point ( °F °C ) Humidity (%) Winds ( mph kmh ) Pressure ( in mb ) Visibility ( mi km ) Precip ( " mm )
12:56 am 00:56 Clear 37 2.6 17 -8.4 45 45 WNW 7 11 29.86 1011 10 16 0.00 0.00
1:56 am 01:56 Clear 33 0.6 19 -7.5 55 55 W 3 6 29.89 1012 10 16 0.00 0.00
2:56 am 02:56 Clear 34 1.1 17 -8.2 50 50 WSW 3 6 29.91 1013 10 16 0.00 0.00
3:56 am 03:56 Clear 35 1.5 18 -7.6 51 51 Calm 29.90 1013 10 16 0.00 0.00
4:56 am 04:56 Clear 36 2 18 -7.6 49 49 Calm 29.90 1013 10 16 0.00 0.00
5:56 am 05:56 Clear 39 3.7 15 -9.5 38 38 Calm 29.91 1013 10 16 0.00 0.00
6:56 am 06:56 Clear 37 2.8 18 -7.9 46 46 Calm 29.93 1014 10 16 0.00 0.00
7:56 am 07:56 Sunny 37 2.5 19 -7.4 48 48 WNW 3 6 29.94 1014 10 16 0.00 0.00
8:56 am 08:56 Mostly Sunny 38 3.4 21 -6.2 50 50 WNW 5 7 29.95 1014 10 16 0.00 0.00
9:56 am 09:56 Sunny 42 5.5 19 -7.1 40 40 Calm 29.93 1014 10 16 0.00 0.00
10:56 am 10:56 Sunny 45 7.1 19 -7.5 35 35 N 7 11 29.88 1012 10 16 0.00 0.00
11:56 am 11:56 Sunny 46 7.7 19 -7.5 33 33 N 5 7 29.81 1010 10 16 0.00 0.00
12:56 pm 12:56 Mostly Sunny 46 7.9 21 -6.1 37 37 ESE 5 7 29.79 1009 10 16 0.00 0.00
1:56 pm 13:56 Partly Cloudy 47 8.6 22 -5.8 36 36 Calm 29.76 1008 10 16 0.00 0.00
2:56 pm 14:56 Mostly Sunny 44 6.7 29 -1.7 55 55 Calm 29.78 1008 10 16 0.00 0.00
3:56 pm 15:56 Sunny 41 5 28 -2.3 60 60 Calm 29.81 1009 10 16 0.00 0.00
4:56 pm 16:56 Sunny 40 4.3 25 -4 55 55 Calm 29.81 1009 10 16 0.00 0.00
5:56 pm 17:56 Clear 42 5.8 22 -5.6 44 44 Calm 29.77 1008 10 16 0.00 0.00
6:56 pm 18:56 Clear 42 5.4 20 -6.7 42 42 S 5 7 29.80 1009 10 16 0.00 0.00
7:56 pm 19:56 Clear 41 5 17 -8.1 39 39 Calm 29.78 1008 10 16 0.00 0.00
8:56 pm 20:56 Clear 41 5 17 -8.1 39 39 WNW 5 7 29.77 1008 10 16 0.00 0.00
9:56 pm 21:56 Clear 43 6.3 14 -10 30 30 Calm 29.72 1007 10 16 0.00 0.00
10:56 pm 22:56 Clear 44 6.5 14 -10.2 29 29 ESE 6 9 29.68 1005 10 16 0.00 0.00
11:56 pm 23:56 Clear 38 3.6 15 -9.3 39 39 S 5 7 29.68 1005 10 16 0.00 0.00

Powered by AerisWeather